Location: Cisewo
(53.3833°N, 14.9000°E)
Time: 10:14:21
(UTC+00:00)

Cosmos 1992 Rocket - Pass Details

Date: 18 April 2021
Orbit: 759 x 765 km, 74.0° (Epoch: 14 May)

Event Time Altitude Azimuth Distance (km) Brightness Sun altitude
Rises 18:47:22 0° 333° (NNW) 3,233 8.3 -6.3°
Reaches altitude 10° 18:49:44 10° 332° (NNW) 2,304 7.5 -6.7°
Maximum altitude 18:54:57 78° 247° (WSW) 784 4.2 -7.3°
Drops below altitude 10° 19:00:09 10° 162° (SSE) 2,291 6.0 -8.0°
Enters shadow 19:01:54 - 161° (SSE) 2,970 6.6 -8.2°
